2020-081K (46914 NORAD) Tracking and Keplerian Element Data

This shows tracking and keplerian element data for the satellite.

Feedback or suggestion? Click here.




ElementValue
Catalog46914
Name2020-081K
Epoch Orbit182
Epoch Day329.48858295
Epoch Year2020
RAAN358.6484
Inclination36.9044
Eccentricity0.0008537
Argument of Perigee136.8542
Mean Anonmoly223.2869
Mean Motion14.99533243
Decay Rate4.56E-06
L11 46914U 20081K 20329.48858295 .00000456 00000-0 42660-4 0 9997
L22 46914 36.9044 358.6484 0008537 136.8542 223.2869 14.99533243 1828

Live tracking and technical data element details for 2020-081K (NORAD 46914). 2020-081K can be tracked NOW for your location showing map with azimuth and elevation plus other details from your city location.

Track the satellite on the map from your city or location and see movement details for azimuth, elevation, latitude, longitude, range, height, and movement on the map or in text.







IsCatalogInMostPopularTable: catalog: 46914, numindb: 5
Update: records affected: 1



GetName: 46914 2020-081K

Hit Count: updated at: Thu, 26 Nov 2020 18:23:47 GMT